Regional Weather Roundup
Issued by NWS Goodland, KS

Home | Current Version | Previous Version | Graphics & Text | Print | Product List | Glossary On
Versions: 1 2 3 4 5 6 7 8 9 10 11 12 13 14 15 16 17 18 19 20 21 22 23 24 25 26 27 28 29 30 31 32 33 34 35 36 37 38 39 40 41 42 43 44 45 46 47 48 49 50
000
ASUS43 KGLD 132359
RWRGLD

GOODLAND FORECAST AREA HOURLY WEATHER ROUNDUP
NATIONAL WEATHER SERVICE GOODLAND KS
500 PM MST SAT FEB 13 2016

...OFFICIAL OBSERVATIONS...

CITY           SKY/WX    TMP DP  RH WIND       PRES   REMARKS
GOODLAND KS    CLOUDY    31  29  92 S12       29.97S FOG
HILL CITY KS   CLOUDY    33  20  58 SE8       30.07F
IMPERIAL NEB   CLOUDY    30  28  92 S12       29.95F
MCCOOK NEB     CLOUDY    30  23  75 S12       30.02F HAZE
AKRON CO       CLOUDY    45  36  70 SW10      29.90F
BURLINGTON CO  CLOUDY    35  30  82 S10       29.95F
LIMON CO       CLEAR     45  34  65 NW5       29.96R
$$

...UNOFFICIAL OBSERVATIONS...

CITY           SKY/WX    TMP DP  RH WIND       PRES   REMARKS
COLBY KS       CLEAR     34  30  86 SE7       30.01F
GOVE KS          N/A     40  32  73 MISG        N/A
LENORA KS        N/A     32  32 100 MISG        N/A
NORTON KS      PTCLDY    30  18  59 SE10      30.03F
SHARON SPRINGS   N/A     38  31  74 E6G13       N/A
KIT CARSON CO    N/A     39  36  89 MISG        N/A
YUMA CO          N/A     46  36  67 SW6         N/A
$$



USA.gov is the U.S. government's official web portal to all federal, state and local government web resources and services.